FW1784 Weather Reports


Display with metric or nautical units.
time (UTC)temp
F
wind
direction
speed
MPH
gust
MPH
rain 1hr
in
rain 24hr
in
rain mn
in
humidity
%
barometer
mb
20260510133102 59 213 3.0 6.0 0.00 0.42 0.00 89 1011.9
20260510124606 56 115 1.0 4.0 0.00 0.42 0.00 98 1011.9
20260510123003 55 179 0.0 0.0 0.00 0.42 0.00 99 1011.9
20260510121606 54 179 0.0 1.0 0.00 0.42 0.00 99 1011.8
20260510120002 53 190 0.0 0.0 0.00 0.42 0.00 99 1011.7
20260510114503 52 200 0.0 0.0 0.00 0.45 0.00 99 1011.5
20260510113102 51 200 0.0 0.0 0.00 0.45 0.00 99 1011.4
20260510111505 50 200 0.0 0.0 0.00 0.45 0.00 99 1011.3
20260510104602 49 200 0.0 0.0 0.00 0.46 0.00 99 1011.3
20260510103002 49 200 0.0 0.0 0.00 0.46 0.00 99 1011.0
20260510101602 49 200 0.0 0.0 0.00 0.46 0.00 99 1011.0
20260510100003 49 207 0.0 0.0 0.00 0.46 0.00 99 1011.0
20260510094608 49 207 0.0 0.0 0.00 0.49 0.00 99 1010.7
20260510093004 49 207 0.0 0.0 0.00 0.49 0.00 98 1010.5
20260510091603 49 207 0.0 0.0 0.00 0.49 0.00 98 1010.3
20260510090005 49 207 0.0 0.0 0.00 0.49 0.00 98 1010.3
20260510084502 50 207 0.0 0.0 0.00 0.54 0.00 98 1010.1
20260510083007 50 207 0.0 0.0 0.00 0.54 0.00 98 1010.1
20260510081503 50 207 0.0 0.0 0.00 0.54 0.00 98 1010.1
20260510074603 49 130 0.0 0.0 0.00 0.61 0.00 98 1010.6
20260510073002 50 130 0.0 0.0 0.00 0.61 0.00 98 1010.6
20260510071603 50 130 0.0 0.0 0.00 0.61 0.00 98 1010.8
20260510070002 50 130 0.0 0.0 0.00 0.61 0.00 98 1010.9
20260510064508 50 130 0.0 2.0 0.00 0.62 0.00 98 1011.1
20260510063104 50 130 0.0 2.0 0.00 0.62 0.00 98 1011.0
20260510061503 50 161 0.0 0.0 0.00 0.62 0.00 98 1010.8
20260510060002 49 161 0.0 0.0 0.00 0.62 0.00 98 1010.5
20260510054603 49 161 0.0 0.0 0.00 0.62 0.00 98 1010.6
20260510053004 50 161 0.0 0.0 0.00 0.62 0.00 98 1010.5
20260510051503 50 161 0.0 0.0 0.00 0.62 0.00 98 1010.5
20260510044502 50 161 0.0 0.0 0.00 0.62 0.00 98 1010.4
20260510043112 51 161 0.0 0.0 0.00 0.62 0.00 98 1010.4
20260510041503 50 161 0.0 0.0 0.00 0.62 0.00 98 1010.5
20260510040105 51 161 0.0 0.0 0.00 0.62 0.00 98 1010.4
20260510034606 51 161 0.0 0.0 0.00 0.62 0.62 98 1010.3
20260510033003 51 161 0.0 0.0 0.00 0.62 0.62 98 1010.2
20260510031624 51 161 0.0 0.0 0.00 0.62 0.62 98 1010.5
20260510030002 51 161 0.0 0.0 0.00 0.62 0.62 98 1010.6
20260510024502 51 161 0.0 0.0 0.00 0.62 0.62 98 1010.6
20260510023102 51 161 0.0 0.0 0.00 0.62 0.62 98 1010.4
20260510021603 51 161 0.0 0.0 0.00 0.62 0.62 98 1010.3
20260510014602 51 161 0.0 0.0 0.00 0.62 0.62 98 1010.2
20260510013002 51 161 0.0 0.0 0.00 0.62 0.62 97 1010.5
20260510011603 52 161 0.0 0.0 0.00 0.62 0.62 97 1010.2
20260510010005 52 161 0.0 0.0 0.00 0.62 0.62 97 1010.2
20260510004503 52 161 0.0 0.0 0.00 0.62 0.62 97 1009.8
20260510003102 52 161 0.0 0.0 0.00 0.62 0.62 97 1009.7
20260510001502 52 161 0.0 0.0 0.00 0.62 0.62 97 1009.7
20260510000109 53 161 0.0 0.0 0.00 0.62 0.62 96 1009.3
20260509234503 53 161 0.0 0.0 0.00 0.62 0.62 97 1009.0
20260509233102 54 161 0.0 2.0 0.00 0.62 0.62 97 1008.9
20260509231503 54 157 0.0 0.0 0.00 0.62 0.62 96 1008.8
20260509230004 54 155 0.0 1.0 0.00 0.62 0.62 96 1008.8
20260509224502 54 155 0.0 2.0 0.00 0.62 0.62 96 1009.0
20260509223107 54 213 0.0 2.0 0.00 0.62 0.62 97 1009.1
20260509221503 54 213 1.0 4.0 0.00 0.62 0.62 97 1008.9
20260509220104 54 146 0.0 6.0 0.00 0.62 0.62 97 1008.9
20260509214606 54 186 0.0 2.0 0.00 0.62 0.62 97 1009.1
20260509213003 54 187 2.0 4.0 0.01 0.62 0.62 97 1009.1
20260509210003 53 152 0.0 5.0 0.04 0.62 0.62 98 1009.3
20260509204502 53 259 0.0 1.0 0.05 0.62 0.62 97 1009.4
20260509203104 53 259 0.0 1.0 0.07 0.61 0.61 97 1009.7
20260509201501 52 259 0.0 2.0 0.07 0.60 0.60 98 1010.0
20260509200110 52 246 0.0 3.0 0.06 0.57 0.57 97 1010.1
20260509194605 52 217 0.0 1.0 0.07 0.56 0.56 97 1010.3
20260509193025 52 218 0.0 3.0 0.06 0.54 0.54 97 1010.6
20260509191503 52 165 0.0 3.0 0.07 0.53 0.53 97 1010.7
20260509184504 51 155 0.0 1.0 0.08 0.50 0.50 97 1011.1
20260509183103 51 205 0.0 2.0 0.08 0.48 0.48 97 1011.1
20260509181503 51 261 0.0 0.0 0.08 0.46 0.46 97 1011.0
20260509174605 50 261 0.0 0.0 0.06 0.42 0.42 97 1010.9
20260509173106 50 261 0.0 0.0 0.05 0.40 0.40 97 1010.8
20260509171502 50 261 0.0 0.0 0.03 0.38 0.38 97 1010.8
20260509170104 49 261 0.0 0.0 0.04 0.37 0.37 97 1010.8
20260509164603 48 261 0.0 0.0 0.04 0.37 0.36 97 1011.0
20260509163002 48 261 0.0 1.0 0.05 0.36 0.35 96 1011.5
20260509161605 48 257 0.0 1.0 0.06 0.36 0.35 96 1011.7
20260509160003 49 294 0.0 2.0 0.05 0.34 0.33 96 1011.8
20260509154505 49 64 0.0 0.0 0.05 0.33 0.32 96 1011.8
20260509153102 49 64 0.0 0.0 0.04 0.31 0.30 96 1011.7
20260509151503 49 62 0.0 1.0 0.05 0.30 0.28 96 1011.9
20260509150104 49 62 0.0 2.0 0.05 0.28 0.28 97 1011.9
20260509144611 49 62 0.0 4.0 0.05 0.28 0.27 97 1012.0
20260509143003 48 42 0.0 3.0 0.04 0.27 0.26 97 1011.9
20260509141603 48 43 0.0 0.0 0.04 0.26 0.25 97 1012.1
20260509140002 47 43 0.0 2.0 0.03 0.24 0.23 97 1012.2
20260509134502 47 43 0.0 0.0 0.02 0.23 0.22 97 1012.0